Location: Newark
(23.7500°N, 102.4000°W)
Time: 21:41:06
(UTC+00:00)

Envisat - Visible Passes

Search period start: 20 September 2020 00:00
Search period end: 30 September 2020 00:00
Orbit: 764 x 766 km, 98.1° (Epoch: 20 September)

Date Brightness Start Highest point End Pass type
(mag) Time Alt. Az. Time Alt. Az. Time Alt. Az.
20 Sep 5.6 01:04:48 10° SSW 01:08:59 26° W 01:13:11 10° NW visible
20 Sep 6.0 11:44:49 10° NE 11:48:05 17° E 11:51:22 10° SE visible
22 Sep 6.3 01:32:15 10° WSW 01:34:32 13° W 01:36:49 10° WNW visible
22 Sep 5.0 12:09:03 10° NE 12:13:37 34° E 12:18:10 10° SSE visible
23 Sep 6.3 11:34:32 10° ENE 11:36:41 13° E 11:38:50 10° ESE visible
25 Sep 6.1 01:19:47 10° SW 01:23:07 18° W 01:26:28 10° NW visible
25 Sep 5.6 11:58:05 10° NE 12:02:14 25° E 12:06:22 10° SSE visible
28 Sep 5.8 01:07:43 10° SSW 01:11:42 23° W 01:15:44 10° NW visible
28 Sep 6.0 11:47:17 10° NE 11:50:50 19° E 11:54:23 10° SE visible
